Location: Fenile
(46.0500°N, 9.5500°E)
Time: 20:19:23
(UTC+00:00)

CSL-04 Rocket - Pass Details

Date: 03 March 2021
Orbit: 805 x 861 km, 98.9° (Epoch: 13 April)

Event Time Altitude Azimuth Distance (km) Brightness Sun altitude
Rises 18:21:08 0° 161° (SSE) 3,424 6.6 -12.9°
Reaches altitude 10° 18:23:30 10° 161° (SSE) 2,490 5.9 -13.3°
Maximum altitude 18:29:03 84° 74° (ENE) 867 3.7 -14.3°
Drops below altitude 10° 18:34:35 10° 347° (NNW) 2,486 6.4 -15.2°
Sets 18:36:57 0° 347° (NNW) 3,418 7.1 -15.7°
